CSCLB LCLK-LFPB

Flight info

Callsign CSCLB
Flight time 4h 17m
Altitude 38000
Route BONEK M601 EVENO UM601 EXELA UN127 LMO UN128 FSK UL608 DISOR DCT UTOMO/N0464F400 DCT GLOMY DCT PALEZ DCT PEVAL DCT RESIA DCT OLBEN T10 ROBIR DCT RLP
Aircraft CL60/M-SBDE1E2E3FGHIJ1J4J5J7M3RWXYZ/LB1V1D1

Departure

Time 2026-04-22 09:18
Airport Larnaca International Airport (LCLK)

Arrival

Time 2026-04-22 13:35
Airport Paris-Le Bourget International Airport (LFPB)
Time Latitude Longitude Altitude Speed Heading
2026-04-22 08:25 34.88283 33.62891 28 ft 0 kts 228°
2026-04-22 09:13 34.88271 33.62875 29 ft 5 kts 226°
2026-04-22 09:13 34.88222 33.62869 29 ft 13 kts 146°
2026-04-22 09:13 34.88141 33.62948 24 ft 13 kts 179°
2026-04-22 09:13 34.88063 33.62874 24 ft 15 kts 226°
2026-04-22 09:14 34.87976 33.62770 22 ft 19 kts 224°
2026-04-22 09:14 34.87877 33.62647 20 ft 22 kts 225°
2026-04-22 09:14 34.87756 33.62500 15 ft 26 kts 225°
2026-04-22 09:14 34.87624 33.62340 13 ft 25 kts 225°
2026-04-22 09:15 34.87502 33.62191 13 ft 24 kts 226°
2026-04-22 09:15 34.87378 33.62039 12 ft 26 kts 225°
2026-04-22 09:15 34.87242 33.61876 12 ft 28 kts 226°
2026-04-22 09:15 34.87103 33.61705 13 ft 28 kts 226°
2026-04-22 09:16 34.86969 33.61541 17 ft 27 kts 225°
2026-04-22 09:16 34.86840 33.61383 22 ft 26 kts 225°
2026-04-22 09:16 34.86710 33.61225 24 ft 26 kts 226°
2026-04-22 09:16 34.86600 33.61090 30 ft 16 kts 225°
2026-04-22 09:17 34.86519 33.61039 31 ft 13 kts 166°
2026-04-22 09:17 34.86482 33.61133 27 ft 15 kts 79°
2026-04-22 09:17 34.86465 33.61237 23 ft 12 kts 117°
2026-04-22 09:17 34.86490 33.61314 20 ft 13 kts 45°
2026-04-22 09:18 34.86762 33.61646 13 ft 101 kts 46°
2026-04-22 09:18 34.87435 33.62483 118 ft 165 kts 48°
2026-04-22 09:18 34.88289 33.63566 743 ft 188 kts 49°
2026-04-22 09:18 34.89172 33.64728 1678 ft 197 kts 49°
2026-04-22 09:19 34.90091 33.65963 2664 ft 200 kts 47°
2026-04-22 09:19 34.91089 33.67091 3625 ft 206 kts 35°
2026-04-22 09:19 34.92428 33.67821 4461 ft 218 kts 11°
2026-04-22 09:19 34.93987 33.67915 5194 ft 238 kts 349°
2026-04-22 09:20 34.95520 33.67219 6216 ft 240 kts 326°
2026-04-22 09:20 34.96796 33.65885 7039 ft 251 kts 307°
2026-04-22 09:20 34.97638 33.64079 7950 ft 246 kts 287°
2026-04-22 09:20 34.97916 33.62054 8786 ft 249 kts 270°
2026-04-22 09:21 34.97693 33.59989 9811 ft 253 kts 251°
2026-04-22 09:21 34.96724 33.58189 10769 ft 263 kts 231°
2026-04-22 09:21 34.95738 33.56302 11764 ft 267 kts 250°
2026-04-22 09:21 34.95277 33.54155 12777 ft 269 kts 265°
2026-04-22 09:22 34.95274 33.51903 13819 ft 266 kts 274°
2026-04-22 09:22 34.95378 33.49680 14828 ft 263 kts 274°
2026-04-22 09:22 34.95477 33.47506 15808 ft 263 kts 273°
2026-04-22 09:22 34.95577 33.45305 16798 ft 262 kts 273°
2026-04-22 09:23 34.95677 33.43106 17771 ft 260 kts 273°
2026-04-22 09:23 34.95776 33.40928 18593 ft 263 kts 273°
2026-04-22 09:23 34.95878 33.38690 19233 ft 272 kts 273°
2026-04-22 09:23 34.95981 33.36379 19866 ft 278 kts 273°
2026-04-22 09:24 34.96086 33.34011 20501 ft 282 kts 272°
2026-04-22 09:24 34.96296 33.31620 21201 ft 286 kts 283°
2026-04-22 09:24 34.96926 33.29227 21356 ft 310 kts 288°
2026-04-22 09:24 34.97681 33.26657 21371 ft 337 kts 288°
2026-04-22 09:25 34.98484 33.23899 21561 ft 356 kts 288°
2026-04-22 09:25 34.99322 33.21019 22041 ft 365 kts 288°
2026-04-22 09:25 35.00173 33.18085 22714 ft 369 kts 288°
2026-04-22 09:25 35.01019 33.15160 23384 ft 372 kts 288°
2026-04-22 09:26 35.01894 33.12132 24076 ft 375 kts 288°
2026-04-22 09:26 35.02782 33.09056 24767 ft 377 kts 288°
2026-04-22 09:26 35.03653 33.06034 25380 ft 380 kts 288°
2026-04-22 09:26 35.04540 33.02951 25976 ft 383 kts 288°
2026-04-22 09:27 35.05421 32.99884 26541 ft 386 kts 287°
2026-04-22 09:27 35.06314 32.96765 27079 ft 389 kts 287°
2026-04-22 09:27 35.07201 32.93646 27580 ft 392 kts 287°
2026-04-22 09:27 35.08054 32.90505 28042 ft 394 kts 286°
2026-04-22 09:28 35.08899 32.87335 28498 ft 397 kts 286°
2026-04-22 09:28 35.09759 32.84110 28963 ft 399 kts 286°
2026-04-22 09:28 35.10625 32.80870 29396 ft 402 kts 286°
2026-04-22 09:28 35.11492 32.77641 29796 ft 404 kts 286°
2026-04-22 09:29 35.12369 32.74369 30205 ft 406 kts 286°
2026-04-22 09:29 35.13239 32.71120 30590 ft 408 kts 286°
2026-04-22 09:29 35.14123 32.67816 30927 ft 410 kts 286°
2026-04-22 09:29 35.15018 32.64465 31274 ft 412 kts 286°
2026-04-22 09:30 35.15904 32.61141 31606 ft 413 kts 286°
2026-04-22 09:30 35.16796 32.57794 31905 ft 415 kts 286°
2026-04-22 09:30 35.17690 32.54435 32195 ft 417 kts 286°
2026-04-22 09:30 35.18583 32.51073 32471 ft 418 kts 286°
2026-04-22 09:31 35.19482 32.47682 32717 ft 420 kts 286°
2026-04-22 09:31 35.20373 32.44322 33023 ft 419 kts 286°
2026-04-22 09:31 35.21264 32.40954 33366 ft 418 kts 286°
2026-04-22 09:31 35.22163 32.37555 33699 ft 416 kts 286°
2026-04-22 09:32 35.23044 32.34218 34043 ft 414 kts 285°
2026-04-22 09:32 35.23917 32.30906 34390 ft 413 kts 285°
2026-04-22 09:32 35.24801 32.27550 34672 ft 411 kts 285°
2026-04-22 09:32 35.25666 32.24259 34926 ft 410 kts 285°
2026-04-22 09:33 35.26545 32.20912 35168 ft 410 kts 286°
2026-04-22 09:33 35.27387 32.17702 35372 ft 410 kts 285°
2026-04-22 09:33 35.28253 32.14394 35586 ft 410 kts 286°
2026-04-22 09:33 35.29123 32.11067 35795 ft 410 kts 286°
2026-04-22 09:34 35.29987 32.07756 36011 ft 409 kts 285°
2026-04-22 09:34 35.30853 32.04448 36219 ft 409 kts 286°
2026-04-22 09:34 35.31715 32.01183 36470 ft 408 kts 286°
2026-04-22 09:35 35.33453 31.94578 36975 ft 407 kts 286°
2026-04-22 09:35 35.34319 31.91284 37218 ft 406 kts 286°
2026-04-22 09:35 35.35175 31.88022 37440 ft 406 kts 286°
2026-04-22 09:35 35.36043 31.84708 37671 ft 405 kts 286°
2026-04-22 09:36 35.36896 31.81450 37860 ft 405 kts 286°
2026-04-22 09:36 35.37754 31.78165 38029 ft 404 kts 286°
2026-04-22 09:36 35.39477 31.71558 38034 ft 411 kts 286°
2026-04-22 09:37 35.41220 31.64858 38030 ft 416 kts 286°
2026-04-22 09:37 35.42961 31.58150 38030 ft 417 kts 286°
2026-04-22 09:38 35.44709 31.51394 38025 ft 417 kts 286°
2026-04-22 09:38 35.46460 31.44609 38026 ft 416 kts 286°
2026-04-22 09:39 35.48201 31.37849 38030 ft 416 kts 286°
2026-04-22 09:39 35.49928 31.31120 38024 ft 416 kts 285°
2026-04-22 09:40 35.51656 31.24373 38021 ft 415 kts 285°
2026-04-22 09:40 35.53380 31.17622 38023 ft 415 kts 285°
2026-04-22 09:41 35.55103 31.10859 38018 ft 416 kts 285°
2026-04-22 09:41 35.56823 31.04088 38023 ft 417 kts 285°
2026-04-22 09:42 35.58541 30.97307 38010 ft 417 kts 286°
2026-04-22 09:42 35.60248 30.90553 38008 ft 416 kts 286°
2026-04-22 09:43 35.61966 30.83763 38009 ft 416 kts 286°
2026-04-22 09:43 35.63704 30.77045 38019 ft 415 kts 286°
2026-04-22 09:44 35.65447 30.70291 38010 ft 415 kts 286°
2026-04-22 09:44 35.67191 30.63520 38011 ft 415 kts 286°
2026-04-22 09:45 35.68925 30.56765 38015 ft 415 kts 286°
2026-04-22 09:45 35.70650 30.50026 38013 ft 415 kts 286°
2026-04-22 09:46 35.72379 30.43259 38005 ft 415 kts 286°
2026-04-22 09:46 35.74097 30.36515 38010 ft 415 kts 286°
2026-04-22 09:47 35.75817 30.29742 38011 ft 415 kts 285°
2026-04-22 09:47 35.77526 30.22994 38013 ft 415 kts 285°
2026-04-22 09:48 35.79237 30.16222 38013 ft 414 kts 286°
2026-04-22 09:48 35.80940 30.09467 38012 ft 414 kts 286°
2026-04-22 09:49 35.82637 30.02713 38012 ft 414 kts 286°
2026-04-22 09:49 35.84401 29.95970 38011 ft 415 kts 287°
2026-04-22 09:50 35.86228 29.89265 38012 ft 414 kts 287°
2026-04-22 09:50 35.88055 29.82536 38008 ft 414 kts 287°
2026-04-22 09:51 35.89869 29.75835 38015 ft 414 kts 287°
2026-04-22 09:51 35.91685 29.69108 38011 ft 414 kts 287°
2026-04-22 09:52 35.93487 29.62421 38014 ft 414 kts 288°
2026-04-22 09:52 35.95948 29.56020 38011 ft 417 kts 301°
2026-04-22 09:53 35.99737 29.50570 38016 ft 422 kts 315°
2026-04-22 09:53 36.04266 29.45945 38010 ft 423 kts 317°
2026-04-22 09:54 36.08804 29.41335 38007 ft 423 kts 317°
2026-04-22 09:54 36.13345 29.36716 38012 ft 422 kts 317°
2026-04-22 09:55 36.17873 29.32105 38006 ft 422 kts 316°
2026-04-22 09:55 36.22346 29.27441 38007 ft 422 kts 316°
2026-04-22 09:56 36.26812 29.22753 38007 ft 422 kts 315°
2026-04-22 09:56 36.31285 29.18053 38002 ft 422 kts 315°
2026-04-22 09:57 36.35726 29.13379 37991 ft 421 kts 315°
2026-04-22 09:57 36.40199 29.08665 37995 ft 421 kts 315°
2026-04-22 09:58 36.44632 29.03985 37995 ft 420 kts 315°
2026-04-22 09:58 36.49079 28.99284 37991 ft 420 kts 315°
2026-04-22 09:59 36.53537 28.94565 37995 ft 420 kts 315°
2026-04-22 09:59 36.57963 28.89872 37993 ft 420 kts 315°
2026-04-22 10:00 36.62411 28.85148 37999 ft 419 kts 315°
2026-04-22 10:00 36.66833 28.80444 38000 ft 419 kts 315°
2026-04-22 10:01 36.71260 28.75742 38002 ft 419 kts 315°
2026-04-22 10:01 36.75698 28.71038 38003 ft 420 kts 315°
2026-04-22 10:02 36.80123 28.66341 38010 ft 419 kts 315°
2026-04-22 10:02 36.84552 28.61632 38004 ft 419 kts 315°
2026-04-22 10:03 36.88995 28.56902 38009 ft 418 kts 315°
2026-04-22 10:03 36.93394 28.52209 38006 ft 418 kts 315°
2026-04-22 10:04 36.97827 28.47472 37998 ft 418 kts 315°
2026-04-22 10:04 37.02227 28.42765 37997 ft 419 kts 315°
2026-04-22 10:05 37.06652 28.38022 38010 ft 419 kts 315°
2026-04-22 10:05 37.11067 28.33254 38012 ft 419 kts 314°
2026-04-22 10:06 37.15484 28.28463 38006 ft 419 kts 315°
2026-04-22 10:06 37.19884 28.23720 37994 ft 418 kts 315°
2026-04-22 10:07 37.24289 28.18967 38001 ft 418 kts 315°
2026-04-22 10:07 37.28692 28.14211 38006 ft 418 kts 315°
2026-04-22 10:08 37.33067 28.09459 38000 ft 418 kts 315°
2026-04-22 10:08 37.37440 28.04686 37996 ft 418 kts 315°
2026-04-22 10:09 37.41830 27.99888 37992 ft 418 kts 315°
2026-04-22 10:09 37.46193 27.95111 38000 ft 417 kts 315°
2026-04-22 10:10 37.50563 27.90319 37993 ft 417 kts 315°
2026-04-22 10:10 37.54929 27.85524 37996 ft 417 kts 315°
2026-04-22 10:11 37.59277 27.80743 37984 ft 417 kts 315°
2026-04-22 10:11 37.63636 27.75939 37983 ft 417 kts 315°
2026-04-22 10:12 37.68002 27.71122 37976 ft 416 kts 314°
2026-04-22 10:12 37.72355 27.66310 37966 ft 416 kts 315°
2026-04-22 10:13 37.76690 27.61511 37968 ft 416 kts 315°
2026-04-22 10:13 37.81035 27.56693 37970 ft 416 kts 314°
2026-04-22 10:14 37.85399 27.51846 37970 ft 416 kts 314°
2026-04-22 10:14 37.89720 27.47052 37968 ft 416 kts 315°
2026-04-22 10:15 37.94101 27.42248 37971 ft 416 kts 315°
2026-04-22 10:15 37.98474 27.37445 37976 ft 416 kts 315°
2026-04-22 10:16 38.02093 27.33466 37978 ft 416 kts 314°
2026-04-22 10:16 38.07201 27.27838 37975 ft 416 kts 314°
2026-04-22 10:17 38.11569 27.23018 37973 ft 415 kts 314°
2026-04-22 10:17 38.15892 27.18240 37973 ft 415 kts 314°
2026-04-22 10:18 38.20235 27.13431 37975 ft 415 kts 314°
2026-04-22 10:18 38.24601 27.08589 37981 ft 415 kts 314°
2026-04-22 10:19 38.28935 27.03774 37975 ft 415 kts 314°
2026-04-22 10:19 38.33261 26.98973 37962 ft 415 kts 315°
2026-04-22 10:20 38.37635 26.94149 37952 ft 415 kts 314°
2026-04-22 10:20 38.41975 26.89355 37949 ft 415 kts 315°
2026-04-22 10:21 38.46320 26.84546 37950 ft 415 kts 314°
2026-04-22 10:21 38.50666 26.79729 37953 ft 414 kts 314°
2026-04-22 10:22 38.55007 26.74909 37950 ft 413 kts 315°
2026-04-22 10:22 38.59322 26.70110 37949 ft 413 kts 314°
2026-04-22 10:23 38.63666 26.65270 37949 ft 413 kts 315°
2026-04-22 10:23 38.67983 26.60453 37956 ft 413 kts 315°
2026-04-22 10:24 38.72301 26.55625 37956 ft 414 kts 315°
2026-04-22 10:24 38.76613 26.50798 37952 ft 413 kts 314°
2026-04-22 10:25 38.80934 26.45951 37955 ft 414 kts 315°
2026-04-22 10:25 38.85307 26.41158 37948 ft 414 kts 316°
2026-04-22 10:26 38.89728 26.36474 37950 ft 414 kts 316°
2026-04-22 10:26 38.94187 26.31741 37964 ft 414 kts 315°
2026-04-22 10:27 38.98600 26.27046 37956 ft 414 kts 315°
2026-04-22 10:27 39.03017 26.22340 37949 ft 413 kts 315°
2026-04-22 10:28 39.07447 26.17612 37949 ft 413 kts 315°
2026-04-22 10:28 39.11877 26.12876 37950 ft 413 kts 315°
2026-04-22 10:29 39.16295 26.08145 37950 ft 414 kts 315°
2026-04-22 10:29 39.20690 26.03430 37963 ft 414 kts 315°
2026-04-22 10:30 39.25101 25.98690 37956 ft 414 kts 315°
2026-04-22 10:30 39.29533 25.93912 37959 ft 413 kts 315°
2026-04-22 10:31 39.33852 25.89110 37956 ft 412 kts 315°
2026-04-22 10:31 39.38190 25.84272 37974 ft 412 kts 315°
2026-04-22 10:32 39.42388 25.79583 37979 ft 411 kts 315°
2026-04-22 10:32 39.46718 25.74738 37977 ft 411 kts 315°
2026-04-22 10:33 39.51016 25.69922 37978 ft 410 kts 315°
2026-04-22 10:33 39.55321 25.65090 37981 ft 410 kts 315°
2026-04-22 10:34 39.59616 25.60261 37998 ft 410 kts 314°
2026-04-22 10:34 39.63919 25.55416 37993 ft 409 kts 315°
2026-04-22 10:35 39.68193 25.50594 38003 ft 409 kts 315°
2026-04-22 10:35 39.72468 25.45762 38002 ft 409 kts 315°
2026-04-22 10:36 39.76750 25.40916 38021 ft 408 kts 314°
2026-04-22 10:36 39.81016 25.36077 38009 ft 409 kts 315°
2026-04-22 10:37 39.87439 25.28781 38014 ft 408 kts 314°
2026-04-22 10:38 39.91635 25.23863 38017 ft 404 kts 309°
2026-04-22 10:38 39.95007 25.18093 38025 ft 400 kts 302°
2026-04-22 10:39 39.98200 25.12184 38021 ft 400 kts 302°
2026-04-22 10:39 40.01402 25.06256 38036 ft 400 kts 302°
2026-04-22 10:40 40.04580 25.00365 38030 ft 401 kts 302°
2026-04-22 10:40 40.07791 24.94407 38025 ft 401 kts 302°
2026-04-22 10:41 40.11000 24.88445 38027 ft 401 kts 302°
2026-04-22 10:41 40.14206 24.82477 38018 ft 401 kts 302°
2026-04-22 10:42 40.17385 24.76552 38027 ft 400 kts 302°
2026-04-22 10:42 40.20562 24.70619 38018 ft 399 kts 302°
2026-04-22 10:43 40.23754 24.64649 38024 ft 400 kts 302°
2026-04-22 10:43 40.26928 24.58700 38022 ft 400 kts 302°
2026-04-22 10:44 40.30099 24.52746 38016 ft 400 kts 302°
2026-04-22 10:44 40.33250 24.46818 38026 ft 400 kts 302°
2026-04-22 10:45 40.36418 24.40847 38024 ft 401 kts 302°
2026-04-22 10:45 40.39607 24.34828 38036 ft 400 kts 301°
2026-04-22 10:46 40.42772 24.28841 38025 ft 400 kts 301°
2026-04-22 10:46 40.45922 24.22869 38019 ft 399 kts 301°
2026-04-22 10:47 40.49077 24.16878 38040 ft 400 kts 302°
2026-04-22 10:47 40.52243 24.10855 38013 ft 401 kts 301°
2026-04-22 10:48 40.55392 24.04853 38055 ft 400 kts 301°
2026-04-22 10:48 40.58525 23.98871 38054 ft 400 kts 301°
2026-04-22 10:49 40.61677 23.92838 38033 ft 399 kts 302°
2026-04-22 10:49 40.64801 23.86844 38032 ft 400 kts 302°
2026-04-22 10:50 40.67941 23.80810 38055 ft 400 kts 301°
2026-04-22 10:50 40.71079 23.74767 38051 ft 400 kts 301°
2026-04-22 10:51 40.74217 23.68711 38039 ft 401 kts 302°
2026-04-22 10:51 40.77345 23.62664 38027 ft 401 kts 302°
2026-04-22 10:52 40.80481 23.56589 38026 ft 401 kts 302°
2026-04-22 10:52 40.83609 23.50519 38026 ft 400 kts 302°
2026-04-22 10:53 40.86710 23.44487 38040 ft 400 kts 301°
2026-04-22 10:53 40.89825 23.38417 38015 ft 401 kts 302°
2026-04-22 10:54 40.92952 23.32313 38018 ft 401 kts 301°
2026-04-22 10:54 40.96075 23.26204 38005 ft 401 kts 301°
2026-04-22 10:55 40.99173 23.20134 37993 ft 400 kts 301°
2026-04-22 10:55 41.02270 23.14055 37999 ft 399 kts 301°
2026-04-22 10:56 41.05358 23.07979 38002 ft 399 kts 301°
2026-04-22 10:56 41.08455 23.01876 38021 ft 398 kts 301°
2026-04-22 10:57 41.11818 22.95961 38016 ft 401 kts 307°
2026-04-22 10:57 41.15414 22.90354 38012 ft 401 kts 307°
2026-04-22 10:58 41.19013 22.84718 38029 ft 402 kts 307°
2026-04-22 10:58 41.22610 22.79074 38012 ft 402 kts 307°
2026-04-22 10:59 41.26033 22.73273 38017 ft 400 kts 301°
2026-04-22 10:59 41.29118 22.67120 38038 ft 399 kts 301°
2026-04-22 11:00 41.32191 22.61000 38020 ft 400 kts 301°
2026-04-22 11:00 41.35254 22.54889 38021 ft 400 kts 301°
2026-04-22 11:01 41.38331 22.48735 38025 ft 398 kts 301°
2026-04-22 11:01 41.41401 22.42588 38006 ft 399 kts 301°
2026-04-22 11:02 41.44463 22.36436 38009 ft 400 kts 301°
2026-04-22 11:02 41.47535 22.30251 38007 ft 400 kts 301°
2026-04-22 11:03 41.50597 22.24076 38027 ft 400 kts 301°
2026-04-22 11:03 41.53660 22.17904 38000 ft 400 kts 301°
2026-04-22 11:04 41.56707 22.11746 38023 ft 397 kts 301°
2026-04-22 11:04 41.59736 22.05604 38021 ft 397 kts 301°
2026-04-22 11:05 41.62777 21.99436 38033 ft 398 kts 301°
2026-04-22 11:05 41.65812 21.93264 38021 ft 399 kts 301°
2026-04-22 11:06 41.68838 21.87114 38030 ft 398 kts 301°
2026-04-22 11:06 41.71862 21.80945 38025 ft 398 kts 301°
2026-04-22 11:07 41.74895 21.74730 38040 ft 399 kts 301°
2026-04-22 11:07 41.77911 21.68549 38040 ft 398 kts 301°
2026-04-22 11:08 41.80917 21.62381 38031 ft 398 kts 301°
2026-04-22 11:08 41.83942 21.56163 38043 ft 397 kts 300°
2026-04-22 11:09 41.86929 21.50008 38046 ft 397 kts 300°
2026-04-22 11:09 41.89924 21.43824 38051 ft 397 kts 301°
2026-04-22 11:10 41.92923 21.37616 38053 ft 398 kts 300°
2026-04-22 11:10 41.95947 21.31342 38056 ft 398 kts 300°
2026-04-22 11:11 41.98935 21.25116 38048 ft 399 kts 300°
2026-04-22 11:11 42.01930 21.18872 38058 ft 398 kts 300°
2026-04-22 11:12 42.04932 21.12607 38052 ft 397 kts 300°
2026-04-22 11:12 42.07907 21.06380 38059 ft 396 kts 300°
2026-04-22 11:13 42.10882 21.00143 38049 ft 397 kts 300°
2026-04-22 11:13 42.13861 20.93884 38034 ft 397 kts 300°
2026-04-22 11:14 42.16819 20.87656 38013 ft 396 kts 300°
2026-04-22 11:14 42.19783 20.81412 38028 ft 396 kts 300°
2026-04-22 11:15 42.22727 20.75186 38050 ft 396 kts 300°
2026-04-22 11:15 42.25698 20.68884 38061 ft 398 kts 300°
2026-04-22 11:16 42.28649 20.62603 38038 ft 400 kts 300°
2026-04-22 11:16 42.31633 20.56260 38041 ft 399 kts 300°
2026-04-22 11:17 42.34590 20.49954 38030 ft 401 kts 300°
2026-04-22 11:17 42.37566 20.43597 38041 ft 400 kts 300°
2026-04-22 11:18 42.40518 20.37273 38041 ft 401 kts 300°
2026-04-22 11:18 42.43506 20.30855 38026 ft 401 kts 299°
2026-04-22 11:19 42.46478 20.24463 38043 ft 400 kts 299°
2026-04-22 11:19 42.49436 20.18093 38017 ft 402 kts 300°
2026-04-22 11:20 42.52393 20.11725 37984 ft 402 kts 299°
2026-04-22 11:20 42.55358 20.05289 37987 ft 402 kts 299°
2026-04-22 11:21 42.58317 19.98875 37960 ft 401 kts 300°
2026-04-22 11:21 42.61254 19.92476 37958 ft 402 kts 300°
2026-04-22 11:22 42.64205 19.86050 37944 ft 402 kts 299°
2026-04-22 11:22 42.67036 19.79585 38013 ft 401 kts 298°
2026-04-22 11:23 42.69871 19.73014 37993 ft 403 kts 298°
2026-04-22 11:23 42.72699 19.66451 38004 ft 404 kts 299°
2026-04-22 11:24 42.75509 19.59915 38030 ft 404 kts 298°
2026-04-22 11:24 42.78338 19.53322 38028 ft 404 kts 298°
2026-04-22 11:25 42.81170 19.46706 38022 ft 405 kts 298°
2026-04-22 11:25 42.83995 19.40092 38007 ft 405 kts 298°
2026-04-22 11:26 42.86826 19.33452 38011 ft 405 kts 298°
2026-04-22 11:26 42.89663 19.26783 37966 ft 406 kts 298°
2026-04-22 11:27 42.92474 19.20159 37974 ft 406 kts 298°
2026-04-22 11:27 42.95296 19.13494 38009 ft 406 kts 298°
2026-04-22 11:28 42.98101 19.06857 38216 ft 404 kts 298°
2026-04-22 11:28 42.99511 19.03515 38463 ft 402 kts 298°
2026-04-22 11:28 43.00889 19.00247 38692 ft 400 kts 298°
2026-04-22 11:28 43.02284 18.96935 38905 ft 399 kts 298°
2026-04-22 11:29 43.03664 18.93652 39033 ft 400 kts 298°
2026-04-22 11:29 43.05031 18.90395 39172 ft 400 kts 298°
2026-04-22 11:29 43.06427 18.87066 39308 ft 400 kts 298°
2026-04-22 11:30 43.09188 18.80474 39480 ft 402 kts 298°
2026-04-22 11:30 43.10595 18.77108 39590 ft 403 kts 298°
2026-04-22 11:30 43.11980 18.73788 39669 ft 404 kts 298°
2026-04-22 11:30 43.13379 18.70435 39800 ft 403 kts 298°
2026-04-22 11:31 43.14754 18.67132 39860 ft 405 kts 299°
2026-04-22 11:31 43.16150 18.63777 39970 ft 405 kts 299°
2026-04-22 11:31 43.17527 18.60462 40015 ft 407 kts 298°
2026-04-22 11:32 43.20343 18.53673 40008 ft 410 kts 299°
2026-04-22 11:32 43.23148 18.46892 40014 ft 413 kts 299°
2026-04-22 11:33 43.25986 18.40016 40022 ft 416 kts 299°
2026-04-22 11:33 43.28844 18.33076 40009 ft 418 kts 298°
2026-04-22 11:34 43.31689 18.26150 40043 ft 418 kts 298°
2026-04-22 11:34 43.34544 18.19183 40023 ft 418 kts 298°
2026-04-22 11:35 43.37373 18.12264 40033 ft 419 kts 298°
2026-04-22 11:35 43.40221 18.05282 40022 ft 418 kts 298°
2026-04-22 11:36 43.43057 17.98310 40029 ft 418 kts 299°
2026-04-22 11:36 43.45881 17.91351 40055 ft 418 kts 299°
2026-04-22 11:37 43.48712 17.84358 40061 ft 418 kts 299°
2026-04-22 11:37 43.51546 17.77344 40057 ft 419 kts 299°
2026-04-22 11:38 43.54371 17.70330 40059 ft 420 kts 299°
2026-04-22 11:38 43.58988 17.60139 40032 ft 421 kts 304°
2026-04-22 11:39 43.62289 17.53455 40051 ft 421 kts 304°
2026-04-22 11:39 43.65567 17.46798 40045 ft 420 kts 304°
2026-04-22 11:40 43.68825 17.40163 40057 ft 420 kts 304°
2026-04-22 11:40 43.72098 17.33479 40059 ft 421 kts 303°
2026-04-22 11:41 43.75369 17.26781 40070 ft 422 kts 303°
2026-04-22 11:41 43.78634 17.20079 40059 ft 421 kts 303°
2026-04-22 11:42 43.81909 17.13340 40064 ft 421 kts 303°
2026-04-22 11:42 43.85148 17.06657 40051 ft 422 kts 303°
2026-04-22 11:43 43.88416 16.99900 40060 ft 421 kts 303°
2026-04-22 11:43 43.91665 16.93164 40063 ft 422 kts 303°
2026-04-22 11:44 43.94899 16.86445 40061 ft 421 kts 303°
2026-04-22 11:44 43.98140 16.79695 40058 ft 422 kts 303°
2026-04-22 11:45 44.01387 16.72918 40051 ft 422 kts 303°
2026-04-22 11:45 44.04617 16.66160 40052 ft 422 kts 303°
2026-04-22 11:46 44.07845 16.59390 40044 ft 422 kts 303°
2026-04-22 11:46 44.11106 16.52535 40053 ft 422 kts 304°
2026-04-22 11:47 44.14332 16.45736 40053 ft 423 kts 303°
2026-04-22 11:47 44.17562 16.38914 40061 ft 422 kts 304°
2026-04-22 11:48 44.20806 16.32048 40047 ft 423 kts 303°
2026-04-22 11:48 44.24009 16.25250 40047 ft 423 kts 303°
2026-04-22 11:49 44.27237 16.18384 40049 ft 424 kts 303°
2026-04-22 11:49 44.30454 16.11522 40055 ft 423 kts 303°
2026-04-22 11:50 44.33666 16.04657 40056 ft 424 kts 303°
2026-04-22 11:50 44.36879 15.97775 40071 ft 423 kts 303°
2026-04-22 11:51 44.40077 15.90907 40080 ft 423 kts 303°
2026-04-22 11:51 44.43270 15.84032 40072 ft 424 kts 303°
2026-04-22 11:52 44.46471 15.77126 40085 ft 424 kts 303°
2026-04-22 11:52 44.49656 15.70237 40093 ft 425 kts 303°
2026-04-22 11:53 44.52861 15.63290 40102 ft 424 kts 303°
2026-04-22 11:53 44.56043 15.56373 40101 ft 424 kts 303°
2026-04-22 11:54 44.58908 15.49162 40105 ft 426 kts 296°
2026-04-22 11:54 44.61409 15.41653 40094 ft 427 kts 296°
2026-04-22 11:55 44.63919 15.34116 40092 ft 427 kts 296°
2026-04-22 11:55 44.66432 15.26559 40096 ft 427 kts 296°
2026-04-22 11:56 44.68925 15.19047 40101 ft 426 kts 296°
2026-04-22 11:56 44.71425 15.11495 40078 ft 427 kts 296°
2026-04-22 11:57 44.73904 15.03987 40048 ft 426 kts 296°
2026-04-22 11:57 44.76390 14.96444 40044 ft 426 kts 296°
2026-04-22 11:58 44.78454 14.90162 40085 ft 426 kts 296°
2026-04-22 11:58 44.81334 14.81379 40130 ft 427 kts 296°
2026-04-22 11:59 44.83811 14.73799 40149 ft 427 kts 296°
2026-04-22 11:59 44.86298 14.66168 40138 ft 428 kts 296°
2026-04-22 12:00 44.88770 14.58561 40144 ft 429 kts 296°
2026-04-22 12:00 44.91230 14.50971 40156 ft 428 kts 296°
2026-04-22 12:01 44.93686 14.43372 40163 ft 427 kts 296°
2026-04-22 12:01 44.96144 14.35743 40144 ft 427 kts 296°
2026-04-22 12:02 44.98596 14.28110 40146 ft 427 kts 296°
2026-04-22 12:02 45.00934 14.20811 40141 ft 428 kts 296°
2026-04-22 12:03 45.03375 14.13172 40160 ft 428 kts 296°
2026-04-22 12:03 45.05810 14.05525 40151 ft 428 kts 296°
2026-04-22 12:04 45.08243 13.97865 40150 ft 428 kts 295°
2026-04-22 12:04 45.10677 13.90180 40161 ft 428 kts 295°
2026-04-22 12:05 45.13120 13.82441 40160 ft 428 kts 296°
2026-04-22 12:05 45.15529 13.74787 40157 ft 427 kts 296°
2026-04-22 12:06 45.17534 13.68401 40155 ft 428 kts 296°
2026-04-22 12:06 45.19951 13.60682 40145 ft 429 kts 296°
2026-04-22 12:07 45.22749 13.51713 40143 ft 429 kts 296°
2026-04-22 12:07 45.25160 13.43964 40151 ft 429 kts 296°
2026-04-22 12:08 45.27557 13.36231 40146 ft 429 kts 296°
2026-04-22 12:08 45.29966 13.28438 40143 ft 428 kts 295°
2026-04-22 12:09 45.32077 13.22098 40146 ft 427 kts 300°
2026-04-22 12:09 45.35399 13.13520 40147 ft 427 kts 300°
2026-04-22 12:10 45.37775 13.07354 40148 ft 428 kts 300°
2026-04-22 12:10 45.41092 12.98714 40148 ft 428 kts 300°
2026-04-22 12:11 45.43924 12.91313 40148 ft 427 kts 300°
2026-04-22 12:11 45.46761 12.83877 40151 ft 427 kts 300°
2026-04-22 12:12 45.49582 12.76458 40152 ft 427 kts 300°
2026-04-22 12:12 45.52393 12.69045 40160 ft 428 kts 300°
2026-04-22 12:13 45.55209 12.61599 40155 ft 428 kts 300°
2026-04-22 12:13 45.58020 12.54141 40166 ft 429 kts 300°
2026-04-22 12:14 45.60839 12.46644 40162 ft 428 kts 300°
2026-04-22 12:14 45.63635 12.39185 40161 ft 428 kts 300°
2026-04-22 12:15 45.66472 12.31600 40163 ft 429 kts 300°
2026-04-22 12:15 45.69255 12.24134 40162 ft 429 kts 300°
2026-04-22 12:16 45.71590 12.17852 40164 ft 429 kts 300°
2026-04-22 12:16 45.74368 12.10366 40165 ft 429 kts 300°
2026-04-22 12:17 45.77149 12.02845 40165 ft 429 kts 300°
2026-04-22 12:17 45.80403 11.94022 40157 ft 430 kts 300°
2026-04-22 12:18 45.83175 11.86481 40165 ft 430 kts 300°
2026-04-22 12:18 45.85490 11.80168 40159 ft 430 kts 300°
2026-04-22 12:19 45.88252 11.72615 40151 ft 429 kts 300°
2026-04-22 12:19 45.91475 11.63775 40121 ft 430 kts 300°
2026-04-22 12:20 45.93769 11.57467 40100 ft 430 kts 300°
2026-04-22 12:20 45.96531 11.49850 40082 ft 430 kts 300°
2026-04-22 12:21 45.99737 11.40984 40106 ft 428 kts 300°
2026-04-22 12:21 46.02486 11.33358 40139 ft 429 kts 300°
2026-04-22 12:22 46.05229 11.25726 40158 ft 429 kts 299°
2026-04-22 12:22 46.07954 11.18122 40159 ft 429 kts 299°
2026-04-22 12:23 46.10218 11.11788 40145 ft 430 kts 299°
2026-04-22 12:23 46.12955 11.04113 40116 ft 430 kts 300°
2026-04-22 12:24 46.15690 10.96420 40133 ft 429 kts 299°
2026-04-22 12:24 46.18858 10.87478 40100 ft 430 kts 299°
2026-04-22 12:25 46.21566 10.79813 40064 ft 430 kts 300°
2026-04-22 12:25 46.24283 10.72102 40057 ft 429 kts 300°
2026-04-22 12:26 46.26965 10.64465 40074 ft 429 kts 300°
2026-04-22 12:26 46.29204 10.58073 40079 ft 429 kts 300°
2026-04-22 12:27 46.32344 10.49082 40077 ft 429 kts 299°
2026-04-22 12:27 46.35009 10.41429 40106 ft 429 kts 300°
2026-04-22 12:28 46.37231 10.35031 40114 ft 430 kts 300°
2026-04-22 12:28 46.39948 10.27185 40136 ft 430 kts 299°
2026-04-22 12:29 46.42611 10.19472 40115 ft 431 kts 299°
2026-04-22 12:29 46.45277 10.11730 40114 ft 431 kts 299°
2026-04-22 12:30 46.49297 10.00164 40168 ft 429 kts 300°
2026-04-22 12:31 46.52056 9.92450 40186 ft 430 kts 300°
2026-04-22 12:31 46.54789 9.84778 40186 ft 430 kts 300°
2026-04-22 12:32 46.57990 9.75766 40142 ft 431 kts 300°
2026-04-22 12:32 46.61635 9.65463 40080 ft 431 kts 300°
2026-04-22 12:33 46.64348 9.57766 40094 ft 430 kts 300°
2026-04-22 12:33 46.67067 9.50032 40077 ft 431 kts 300°
2026-04-22 12:34 46.69788 9.42265 40088 ft 430 kts 300°
2026-04-22 12:34 46.72476 9.34573 40122 ft 430 kts 299°
2026-04-22 12:35 46.75203 9.26747 40137 ft 430 kts 299°
2026-04-22 12:35 46.77884 9.19010 40122 ft 430 kts 299°
2026-04-22 12:36 46.80584 9.11193 40130 ft 430 kts 299°
2026-04-22 12:36 46.83271 9.03429 40123 ft 430 kts 299°
2026-04-22 12:37 46.85959 8.95654 40100 ft 430 kts 299°
2026-04-22 12:37 46.88634 8.87834 40093 ft 429 kts 299°
2026-04-22 12:38 46.91293 8.80050 40117 ft 430 kts 299°
2026-04-22 12:38 46.93957 8.72249 40134 ft 430 kts 299°
2026-04-22 12:39 46.97943 8.60511 40140 ft 430 kts 299°
2026-04-22 12:40 47.00599 8.52665 40132 ft 430 kts 299°
2026-04-22 12:40 47.03234 8.44862 40130 ft 429 kts 299°
2026-04-22 12:41 47.06316 8.35698 40128 ft 430 kts 299°
2026-04-22 12:41 47.08505 8.29187 40139 ft 429 kts 298°
2026-04-22 12:42 47.11132 8.21323 40132 ft 429 kts 298°
2026-04-22 12:42 47.13757 8.13452 40117 ft 430 kts 298°
2026-04-22 12:43 47.16383 8.05556 40120 ft 429 kts 298°
2026-04-22 12:43 47.18990 7.97699 40187 ft 429 kts 298°
2026-04-22 12:44 47.21607 7.89797 40140 ft 430 kts 298°
2026-04-22 12:44 47.24206 7.81898 40113 ft 430 kts 298°
2026-04-22 12:45 47.26794 7.74017 40142 ft 429 kts 298°
2026-04-22 12:45 47.29393 7.66094 40148 ft 429 kts 298°
2026-04-22 12:46 47.31580 7.57883 40126 ft 433 kts 291°
2026-04-22 12:46 47.33388 7.49483 40144 ft 432 kts 291°
2026-04-22 12:47 47.35210 7.41057 40135 ft 431 kts 291°
2026-04-22 12:47 47.37333 7.31149 40135 ft 433 kts 290°
2026-04-22 12:48 47.38840 7.24074 40132 ft 433 kts 290°
2026-04-22 12:48 47.40644 7.15591 40130 ft 433 kts 289°
2026-04-22 12:49 47.41988 7.06916 40138 ft 434 kts 285°
2026-04-22 12:49 47.43241 6.98266 40144 ft 433 kts 285°
2026-04-22 12:50 47.44507 6.89548 40120 ft 435 kts 285°
2026-04-22 12:50 47.45771 6.80822 40141 ft 434 kts 285°
2026-04-22 12:51 47.47026 6.72147 40137 ft 433 kts 285°
2026-04-22 12:51 47.48144 6.63416 40132 ft 435 kts 280°
2026-04-22 12:52 47.48780 6.54583 40129 ft 435 kts 279°
2026-04-22 12:52 47.49410 6.45699 40143 ft 434 kts 279°
2026-04-22 12:53 47.50028 6.36822 40146 ft 434 kts 279°
2026-04-22 12:53 47.50639 6.27970 40098 ft 435 kts 279°
2026-04-22 12:54 47.51246 6.19107 40126 ft 435 kts 279°
2026-04-22 12:54 47.51934 6.10218 40091 ft 433 kts 284°
2026-04-22 12:55 47.53733 6.01864 40092 ft 426 kts 297°
2026-04-22 12:55 47.56858 5.94483 40102 ft 422 kts 307°
2026-04-22 12:56 47.60315 5.87445 40087 ft 424 kts 307°
2026-04-22 12:56 47.63762 5.80377 40115 ft 422 kts 308°
2026-04-22 12:57 47.67196 5.73333 40092 ft 422 kts 307°
2026-04-22 12:57 47.70632 5.66276 39958 ft 426 kts 307°
2026-04-22 12:57 47.72346 5.62743 39459 ft 427 kts 308°
2026-04-22 12:58 47.74068 5.59193 38840 ft 424 kts 307°
2026-04-22 12:58 47.75781 5.55664 38343 ft 417 kts 307°
2026-04-22 12:58 47.77449 5.52203 37803 ft 412 kts 307°
2026-04-22 12:58 47.79099 5.48768 37236 ft 407 kts 308°
2026-04-22 12:59 47.80730 5.45377 36736 ft 400 kts 307°
2026-04-22 12:59 47.82336 5.42044 36191 ft 397 kts 307°
2026-04-22 12:59 47.83921 5.38756 35665 ft 391 kts 307°
2026-04-22 12:59 47.85496 5.35480 35205 ft 385 kts 307°
2026-04-22 13:00 47.87030 5.32292 34647 ft 382 kts 307°
2026-04-22 13:00 47.88551 5.29125 34135 ft 375 kts 306°
2026-04-22 13:00 47.89967 5.25861 33671 ft 380 kts 301°
2026-04-22 13:00 47.91050 5.22208 33106 ft 384 kts 292°
2026-04-22 13:01 47.91776 5.18361 32576 ft 389 kts 288°
2026-04-22 13:01 47.92447 5.14436 32130 ft 387 kts 288°
2026-04-22 13:01 47.93111 5.10559 31542 ft 387 kts 288°
2026-04-22 13:01 47.93776 5.06691 31065 ft 382 kts 288°
2026-04-22 13:02 47.94640 5.01643 30354 ft 379 kts 288°
2026-04-22 13:02 47.95070 4.99131 30044 ft 376 kts 288°
2026-04-22 13:02 47.95718 4.95333 29547 ft 373 kts 288°
2026-04-22 13:02 47.96355 4.91593 29064 ft 372 kts 288°
2026-04-22 13:03 47.96991 4.87865 28569 ft 371 kts 288°
2026-04-22 13:03 47.97617 4.84183 28088 ft 369 kts 288°
2026-04-22 13:03 47.98243 4.80495 27594 ft 367 kts 288°
2026-04-22 13:03 47.98871 4.76794 27114 ft 366 kts 288°
2026-04-22 13:04 47.99492 4.73121 26643 ft 365 kts 288°
2026-04-22 13:04 48.00113 4.69444 26139 ft 363 kts 288°
2026-04-22 13:04 48.00721 4.65839 25666 ft 362 kts 288°
2026-04-22 13:04 48.01331 4.62209 25204 ft 360 kts 288°
2026-04-22 13:05 48.01936 4.58606 24700 ft 357 kts 288°
2026-04-22 13:05 48.02539 4.55006 24244 ft 356 kts 288°
2026-04-22 13:05 48.03130 4.51467 23779 ft 354 kts 288°
2026-04-22 13:05 48.03725 4.47906 23317 ft 353 kts 288°
2026-04-22 13:06 48.04317 4.44355 22841 ft 352 kts 288°
2026-04-22 13:06 48.04905 4.40814 22380 ft 351 kts 288°
2026-04-22 13:06 48.05485 4.37324 21924 ft 351 kts 288°
2026-04-22 13:06 48.06075 4.33762 21469 ft 351 kts 287°
2026-04-22 13:07 48.06657 4.30234 20971 ft 353 kts 287°
2026-04-22 13:07 48.07239 4.26707 20516 ft 350 kts 287°
2026-04-22 13:07 48.07827 4.23140 20052 ft 351 kts 287°
2026-04-22 13:07 48.08410 4.19587 19594 ft 349 kts 287°
2026-04-22 13:08 48.09212 4.16226 19136 ft 341 kts 301°
2026-04-22 13:08 48.10647 4.13456 18676 ft 333 kts 319°
2026-04-22 13:08 48.12429 4.11275 18204 ft 330 kts 323°
2026-04-22 13:08 48.14219 4.09161 17776 ft 326 kts 322°
2026-04-22 13:09 48.15987 4.07063 17358 ft 322 kts 323°
2026-04-22 13:09 48.17728 4.04998 16934 ft 318 kts 323°
2026-04-22 13:09 48.19458 4.02946 16526 ft 314 kts 323°
2026-04-22 13:09 48.21154 4.00934 16098 ft 310 kts 324°
2026-04-22 13:10 48.22833 3.98942 15714 ft 305 kts 324°
2026-04-22 13:10 48.24499 3.96965 15280 ft 303 kts 323°
2026-04-22 13:10 48.26066 3.94851 14875 ft 303 kts 317°
2026-04-22 13:10 48.27513 3.92559 14453 ft 304 kts 316°
2026-04-22 13:11 48.28959 3.90263 14005 ft 304 kts 316°
2026-04-22 13:11 48.30399 3.87980 13596 ft 304 kts 316°
2026-04-22 13:11 48.31864 3.85657 13171 ft 305 kts 316°
2026-04-22 13:11 48.33315 3.83357 12741 ft 304 kts 316°
2026-04-22 13:12 48.35233 3.80316 12184 ft 303 kts 316°
2026-04-22 13:12 48.36209 3.78767 11899 ft 302 kts 316°
2026-04-22 13:12 48.37643 3.76493 11482 ft 301 kts 316°
2026-04-22 13:12 48.39078 3.74213 11068 ft 301 kts 316°
2026-04-22 13:13 48.40509 3.71940 10643 ft 301 kts 316°
2026-04-22 13:13 48.41942 3.69661 10245 ft 300 kts 316°
2026-04-22 13:13 48.43378 3.67376 9807 ft 300 kts 316°
2026-04-22 13:13 48.44807 3.65103 9403 ft 299 kts 316°
2026-04-22 13:14 48.46224 3.62847 8994 ft 298 kts 316°
2026-04-22 13:14 48.47660 3.60557 8620 ft 296 kts 316°
2026-04-22 13:14 48.49066 3.58317 8373 ft 293 kts 316°
2026-04-22 13:14 48.50457 3.56100 8127 ft 296 kts 316°
2026-04-22 13:15 48.51885 3.53819 7812 ft 296 kts 316°
2026-04-22 13:15 48.53299 3.51561 7515 ft 294 kts 317°
2026-04-22 13:15 48.54684 3.49344 7242 ft 292 kts 317°
2026-04-22 13:15 48.56086 3.47103 7164 ft 293 kts 317°
2026-04-22 13:16 48.57475 3.44876 7165 ft 293 kts 317°
2026-04-22 13:16 48.58865 3.42645 7173 ft 293 kts 317°
2026-04-22 13:16 48.60267 3.40405 7173 ft 293 kts 317°
2026-04-22 13:16 48.61663 3.38161 7162 ft 293 kts 317°
2026-04-22 13:17 48.63070 3.35904 7167 ft 293 kts 316°
2026-04-22 13:17 48.64469 3.33658 7157 ft 293 kts 316°
2026-04-22 13:17 48.65868 3.31405 7166 ft 294 kts 316°
2026-04-22 13:17 48.67267 3.29147 7177 ft 294 kts 316°
2026-04-22 13:18 48.68677 3.26882 7160 ft 295 kts 316°
2026-04-22 13:18 48.70100 3.24593 7180 ft 294 kts 316°
2026-04-22 13:18 48.71499 3.22335 7165 ft 294 kts 316°
2026-04-22 13:18 48.72906 3.20061 7177 ft 295 kts 316°
2026-04-22 13:19 48.74304 3.17802 7186 ft 294 kts 316°
2026-04-22 13:19 48.75701 3.15549 7179 ft 295 kts 316°
2026-04-22 13:19 48.77110 3.13267 7184 ft 294 kts 316°
2026-04-22 13:19 48.78509 3.10999 7186 ft 294 kts 316°
2026-04-22 13:20 48.79895 3.08755 7188 ft 294 kts 316°
2026-04-22 13:20 48.81294 3.06483 7187 ft 295 kts 316°
2026-04-22 13:20 48.82703 3.04177 7198 ft 294 kts 315°
2026-04-22 13:20 48.83836 3.01588 7194 ft 299 kts 295°
2026-04-22 13:21 48.84284 2.98540 7194 ft 300 kts 271°
2026-04-22 13:21 48.84157 2.95363 7171 ft 301 kts 264°
2026-04-22 13:21 48.83980 2.92203 7195 ft 301 kts 264°
2026-04-22 13:21 48.83808 2.89031 7195 ft 301 kts 264°
2026-04-22 13:22 48.83637 2.85867 7195 ft 301 kts 264°
2026-04-22 13:22 48.83464 2.82729 7180 ft 302 kts 264°
2026-04-22 13:22 48.83293 2.79559 7194 ft 301 kts 264°
2026-04-22 13:22 48.83116 2.76359 7188 ft 302 kts 265°
2026-04-22 13:23 48.82945 2.73191 7178 ft 301 kts 265°
2026-04-22 13:23 48.82778 2.70056 7193 ft 302 kts 264°
2026-04-22 13:23 48.82601 2.66861 7188 ft 302 kts 264°
2026-04-22 13:23 48.82422 2.63695 7186 ft 302 kts 264°
2026-04-22 13:24 48.82245 2.60503 7189 ft 302 kts 264°
2026-04-22 13:24 48.82070 2.57332 7178 ft 302 kts 264°
2026-04-22 13:24 48.81894 2.54168 7174 ft 303 kts 264°
2026-04-22 13:24 48.81716 2.50991 7191 ft 302 kts 264°
2026-04-22 13:25 48.81536 2.47801 7183 ft 302 kts 264°
2026-04-22 13:25 48.81353 2.44660 7194 ft 302 kts 264°
2026-04-22 13:25 48.81167 2.41443 7172 ft 302 kts 264°
2026-04-22 13:25 48.80980 2.38252 6820 ft 307 kts 264°
2026-04-22 13:26 48.80793 2.35032 6362 ft 305 kts 264°
2026-04-22 13:26 48.80603 2.31848 5926 ft 302 kts 263°
2026-04-22 13:26 48.80422 2.28704 5466 ft 299 kts 263°
2026-04-22 13:26 48.80240 2.25612 5032 ft 297 kts 264°
2026-04-22 13:27 48.80052 2.22512 4570 ft 294 kts 264°
2026-04-22 13:27 48.79868 2.19473 4115 ft 289 kts 264°
2026-04-22 13:27 48.79691 2.16478 3676 ft 284 kts 264°
2026-04-22 13:27 48.79707 2.13514 3233 ft 277 kts 285°
2026-04-22 13:28 48.80574 2.11120 3020 ft 251 kts 323°
2026-04-22 13:28 48.82011 2.10100 3004 ft 213 kts 360°
2026-04-22 13:28 48.83442 2.10093 3013 ft 201 kts 15°
2026-04-22 13:28 48.84759 2.10617 2994 ft 195 kts 29°
2026-04-22 13:29 48.85950 2.11574 2977 ft 191 kts 37°
2026-04-22 13:29 48.87070 2.12639 2974 ft 190 kts 38°
2026-04-22 13:29 48.88194 2.13706 2981 ft 189 kts 37°
2026-04-22 13:29 48.89084 2.14990 2991 ft 169 kts 63°
2026-04-22 13:30 48.89539 2.16581 2990 ft 163 kts 71°
2026-04-22 13:30 48.89963 2.18188 2984 ft 162 kts 70°
2026-04-22 13:30 48.90379 2.19754 2976 ft 160 kts 70°
2026-04-22 13:30 48.90791 2.21314 2977 ft 160 kts 69°
2026-04-22 13:31 48.91219 2.22881 2871 ft 154 kts 70°
2026-04-22 13:31 48.91608 2.24304 2690 ft 142 kts 71°
2026-04-22 13:31 48.91986 2.25696 2487 ft 140 kts 70°
2026-04-22 13:31 48.92349 2.27040 2312 ft 140 kts 71°
2026-04-22 13:32 48.92834 2.28849 2067 ft 137 kts 70°
2026-04-22 13:32 48.93076 2.29747 1939 ft 137 kts 69°
2026-04-22 13:32 48.93449 2.31088 1753 ft 137 kts 70°
2026-04-22 13:32 48.93789 2.32336 1616 ft 118 kts 71°
2026-04-22 13:33 48.94087 2.33448 1374 ft 110 kts 71°
2026-04-22 13:33 48.94369 2.34497 1266 ft 108 kts 72°
2026-04-22 13:33 48.94645 2.35533 1116 ft 105 kts 68°
2026-04-22 13:33 48.94925 2.36571 986 ft 107 kts 72°
2026-04-22 13:34 48.95208 2.37620 852 ft 106 kts 69°
2026-04-22 13:34 48.95483 2.38651 776 ft 108 kts 70°
2026-04-22 13:34 48.95759 2.39721 578 ft 107 kts 66°
2026-04-22 13:34 48.96053 2.40772 422 ft 108 kts 64°
2026-04-22 13:35 48.96339 2.41818 286 ft 108 kts 71°
2026-04-22 13:35 48.96609 2.42871 180 ft 101 kts 66°
2026-04-22 13:35 48.96805 2.43592 173 ft 44 kts 68°
2026-04-22 13:35 48.96901 2.43967 178 ft 29 kts 70°
2026-04-22 13:36 48.96948 2.44190 181 ft 20 kts 93°
2026-04-22 13:36 48.96891 2.44365 181 ft 18 kts 140°
2026-04-22 13:36 48.96774 2.44431 180 ft 18 kts 166°
2026-04-22 13:36 48.96655 2.44487 178 ft 16 kts 161°
2026-04-22 13:37 48.96542 2.44534 176 ft 17 kts 170°
2026-04-22 13:37 48.96422 2.44552 174 ft 18 kts 180°
2026-04-22 13:37 48.96271 2.44464 169 ft 16 kts 203°
2026-04-22 13:37 48.96189 2.44408 166 ft 21 kts 205°
2026-04-22 13:38 48.96059 2.44317 160 ft 19 kts 204°
2026-04-22 13:38 48.95925 2.44295 157 ft 10 kts 113°
2026-04-22 13:38 48.95902 2.44338 157 ft 0 kts 198°